Torna al catalogo

STARLINK-6234

AttivoComunicazioniVLEO
NORAD 57331·PAYLOAD·🇺🇸 United States

Lanciato Jul 16, 2023 da Cape Canaveral Space Force Station

Loading…

Prossimi Passaggi (prossime 24 ore)

TLE

AggiornatoSource: CelesTrak SupGP

Epoca: Sep 14, 2026, 21:36 UTC

1 57331C 23099D   26257.90048611  .00019030  00000+0  68940-3 0  2572
2 57331  43.0008 263.7346 0001851 265.0095 147.0142 15.27562240    13

Traccia STARLINK-6234 in tempo reale con AllMySat

Download on the App Store